Regional Weather Roundup
Issued by NWS Boston, MA

Home | Current Version | Previous Version | Text Only | Print | Product List | Glossary On
Versions: 1 2 3 4 5 6 7 8 9 10 11 12 13 14 15 16 17 18 19 20 21 22 23 24 25 26 27 28 29 30 31 32 33 34 35 36 37 38 39 40 41 42 43 44 45 46 47 48 49 50
000
ASUS41 KBOX 272010
RWRBOX

REGIONAL WEATHER ROUNDUP
NATIONAL WEATHER SERVICE TAUNTON MA
400 PM EDT SAT AUG 27 2016

NOTE:  "FAIR" INDICATES FEW OR NO CLOUDS BELOW 12,000 FEET WITH NO
SIGNIFICANT WEATHER AND/OR OBSTRUCTIONS TO VISIBILITY.

MAZALL-272100-
EASTERN MASSACHUSETTS

CITY           SKY/WX    TMP DP  RH WIND       PRES   REMARKS
BOSTON         PTSUNNY   76  61  59 E15       30.17S
BEVERLY        MOSUNNY   79  61  53 SE10      30.16S
LAWRENCE       MOSUNNY   86  59  39 E7        30.18R
BEDFORD        MOSUNNY   85  54  34 E6        30.14S
BLUE HILL        N/A     84  56  38 NE10      30.17S
NORWOOD        NOT AVBL
MARSHFIELD     SUNNY     77  61  57 VRB6G13   30.17S
PLYMOUTH       SUNNY     82  55  39 E9        30.17F
TAUNTON        SUNNY     87  56  34 E8        30.15R
NEW BEDFORD    PTSUNNY   85  57  38 E9        30.15S
$$

MAZALL-272100-
CAPE COD AND THE ISLANDS

CITY           SKY/WX    TMP DP  RH WIND       PRES   REMARKS
FALMOUTH       SUNNY     82  55  39 NE10      30.17
HYANNIS        SUNNY     83  61  47 N10       30.16S
CHATHAM        SUNNY     78  60  53 NE8       30.18F
PROVINCETOWN   SUNNY     79  63  57 E8        30.19S
NANTUCKET      SUNNY     78  59  51 NE13      30.17S
MARTHAS VNYRD  SUNNY     84  61  45 E10       30.16S
$$

MAZALL-272100-
CENTRAL AND WESTERN MASSACHUSETTS

CITY           SKY/WX    TMP DP  RH WIND       PRES   REMARKS
WORCESTER      MOSUNNY   81  58  45 SW3       30.20S
FITCHBURG      CLOUDY    87  59  38 SE3       30.17S
ORANGE         SUNNY     87  57  35 NW6       30.17F
SPRINGFIELD    PTSUNNY   90  59  36 SE3       30.14S
WESTFIELD      MOSUNNY   85  60  42 S9        30.15F
NORTH ADAMS    SUNNY     83  59  44 VRB5      30.18S
PITTSFIELD     MOSUNNY   82  56  40 SW7       30.19F
$$

RIZALL-272100-
RHODE ISLAND

CITY           SKY/WX    TMP DP  RH WIND       PRES   REMARKS
PROVIDENCE     MOSUNNY   84  59  42 S10       30.16S
NEWPORT        SUNNY     83  57  41 SE9       30.16F
BLOCK ISLAND   SUNNY     80  63  55 S8        30.18S
SMITHFIELD     SUNNY     86  60  41 NW6       30.17S
WESTERLY       SUNNY     81  59  47 S9        30.18S
$$

CTZALL-272100-
CONNECTICUT

CITY           SKY/WX    TMP DP  RH WIND       PRES   REMARKS
BRADLEY INTL   MOSUNNY   87  57  35 VRB3      30.16S
HARTFORD       SUNNY     88  62  41 S6        30.15S
BRIDGEPORT     SUNNY     85  57  38 SE9       30.17S
DANBURY        MOSUNNY   82  62  50 S8        30.19S
GROTON         SUNNY     82  61  48 S8        30.16S
NEW HAVEN      PTSUNNY   85  60  42 S8        30.18S
CHESTER        FAIR      84  61  45 VRB6      30.18S
MERIDEN        PTSUNNY   88  60  38 SE7       30.16S
WILLIMANTIC    MOSUNNY   86  60  41 NW5       30.17S
OXFORD         MOSUNNY   82  59  44 S7        30.22F
$$

MEZ002-015-021-024-NHZ003-005-008-011-012-014-VTZ005-008-272100-
NORTHERN NEW ENGLAND

CITY           SKY/WX    TMP DP  RH WIND       PRES   REMARKS
PORTLAND ME    MOSUNNY   80  58  46 S9        30.17R
BANGOR ME      MOSUNNY   80  54  40 N13       30.18R
CONCORD NH     SUNNY     89  58  34 VRB5      30.16S
MANCHESTER NH  MOSUNNY   87  54  32 VRB5      30.14S
NASHUA NH      MOSUNNY   86  59  39 CALM      30.15F
PORTSMOUTH NH  MOSUNNY   82  56  41 SE10      30.16R
JAFFREY NH     MOSUNNY   85  54  34 VRB5      30.20S
KEENE NH       SUNNY     85  58  39 CALM      30.17F
BURLINGTON VT  MOSUNNY   83  59  44 NW9       30.18F
MT. WASHINGTON PTSUNNY   52  50  93 W16         N/A
$$

NYZ052-076-272100-
EASTERN NEW YORK

CITY           SKY/WX    TMP DP  RH WIND       PRES   REMARKS
ALBANY         MOSUNNY   85  61  44 NE6       30.16F
NEW YORK CITY  PTSUNNY   88  56  33 SE13      30.16F
$$

ANZALL-272100-
MARINE OBSERVATIONS

STATION/POSITION TIME  TEMP    WIND        PRES    VSBY  WAVE
                       AIR SEA DIR/SP/G                  HT/PER
                 (UTC) (F)     (DEG/KT/KT) (MB)    (MI)  (FT/S)
BOSTON BUOY      1950   71 71  100/  8/ 10 1021.3F         1/ 6
BUZZARDS BAY     1900   76     180/  6/  7 1021.9F
NANTUCKET SOUND  1950   73 76   60/ 12/ 14 1021.3F         1/ 3
MASS BAY-STELLWA 1904   71 69  110/  8/ 12 1021.4F  1 7/8  1/ 7
ISLE OF SHOALS   2000   71     120/ 15/ 15 1021.2S
S OF BLOCK IS    1925      76                N/A           2/10
$$

......................KEY.........................
  SKY/WX - SKY CONDITION/PRESENT WEATHER
  TMP    - TEMPERATURE IN FAHRENHEIT
  DWPT   - DEWPOINT IN FAHRENHEIT
  RH     - RELATIVE HUMIDITY IN PERCENT
  WIND   - DIRECTION AND SPEED IN MPH
  PRES   - MEAN SEA LEVEL PRESSURE IN INCHES OF HG
  WCI    - WIND CHILL INDEX
  VSB    - VISIBILITY IN MILES
  HX     - HEAT INDEX
  TC     - TEMPERATURE IN CELSIUS
  VRB    - VARIABLE WIND DIRECTION
  N/A    - NOT AVAILABLE



USA.gov is the U.S. government's official web portal to all federal, state and local government web resources and services.